When you browse on this site, cookies collect data to enhance your experience and personalize the content and advertising you see.
Visit our Privacy Policy to learn more. By continuing to use the site, you agree to this use of cookies and data.
  • In Netherlands
  • List of Countries
  • For 7 days
  • Water Temperature
  • Weather Map
  • Weather Widgets
  • user-avatar
    Login

    Hourly Weather Ruse

    Today, 21 November, Thursday

    Time Temperature Precipitation Wind Pressure Humidity
    00:00 +14°C° 0 mm 4 mps 758 mmHg 77%
    01:00 +14°C° 0 mm 4 mps 758 mmHg 78%
    02:00 +13°C° 0 mm 4 mps 758 mmHg 79%
    03:00 +13°C° 0 mm 4 mps 758 mmHg 81%
    04:00 +13°C° 0 mm 3 mps 758 mmHg 83%
    05:00 +13°C° 0 mm 3 mps 758 mmHg 84%
    06:00 +13°C° 0 mm 3 mps 758 mmHg 84%
    07:00 +13°C° 0 mm 3 mps 758 mmHg 84%
    08:00 +13°C° 0 mm 3 mps 758 mmHg 83%
    09:00 +14°C° 0 mm 4 mps 758 mmHg 78%
    10:00 +15°C° 0 mm 4 mps 758 mmHg 73%
    11:00 +16°C° 0 mm 5 mps 758 mmHg 68%
    12:00 +16°C° 0.2 mm 5 mps 758 mmHg 70%
    13:00 +15°C° 0.2 mm 5 mps 758 mmHg 73%
    14:00 +15°C° 0.2 mm 5 mps 757 mmHg 75%
    15:00 +14°C° 0.7 mm 6 mps 757 mmHg 77%
    16:00 +14°C° 0.7 mm 6 mps 757 mmHg 79%
    17:00 +13°C° 0.7 mm 6 mps 758 mmHg 81%
    18:00 +13°C° 1.1 mm 6 mps 758 mmHg 82%
    19:00 +13°C° 1.1 mm 6 mps 758 mmHg 82%
    20:00 +13°C° 1.1 mm 6 mps 758 mmHg 83%
    21:00 +12°C° 0.6 mm 7 mps 758 mmHg 82%
    22:00 +12°C° 0.6 mm 8 mps 758 mmHg 80%
    23:00 +11°C° 0.6 mm 8 mps 759 mmHg 79%

    Tomorrow, 22 November, Friday

    Time Temperature Precipitation Wind Pressure Humidity
    00:00 +11°C° 0.2 mm 8 mps 759 mmHg 78%
    01:00 +11°C° 0.2 mm 8 mps 759 mmHg 78%
    02:00 +11°C° 0.2 mm 8 mps 759 mmHg 78%
    03:00 +10°C° 0.1 mm 8 mps 759 mmHg 77%
    04:00 +10°C° 0.1 mm 9 mps 759 mmHg 77%
    05:00 +8°C° 0.1 mm 9 mps 759 mmHg 77%
    06:00 +9°C° 0.2 mm 8 mps 759 mmHg 77%
    07:00 +9°C° 0.2 mm 8 mps 759 mmHg 78%
    08:00 +7°C° 0.2 mm 8 mps 760 mmHg 78%
    09:00 +7°C° 0.5 mm 8 mps 760 mmHg 78%
    10:00 +8°C° 0.5 mm 7 mps 760 mmHg 78%
    11:00 +8°C° 0.5 mm 7 mps 761 mmHg 77%
    12:00 +8°C° 0.6 mm 7 mps 761 mmHg 76%
    13:00 +8°C° 0.6 mm 7 mps 760 mmHg 75%
    14:00 +6°C° 0.6 mm 7 mps 760 mmHg 74%
    15:00 +6°C° 0.7 mm 7 mps 761 mmHg 74%
    16:00 +6°C° 0.7 mm 7 mps 761 mmHg 74%
    17:00 +5°C° 0.7 mm 7 mps 761 mmHg 74%
    18:00 +5°C° 0.5 mm 7 mps 761 mmHg 75%
    19:00 +5°C° 0.5 mm 7 mps 761 mmHg 76%
    20:00 +4°C° 0.5 mm 7 mps 762 mmHg 77%
    21:00 +4°C° 0.3 mm 6 mps 762 mmHg 77%
    22:00 +4°C° 0.3 mm 6 mps 762 mmHg 77%
    23:00 +3°C° 0.3 mm 5 mps 762 mmHg 77%

    Day after tomorrow, 23 November, Saturday

    Time Temperature Precipitation Wind Pressure Humidity
    00:00 +3°C° 0.1 mm 5 mps 762 mmHg 77%
    01:00 +3°C° 0.1 mm 5 mps 762 mmHg 77%
    02:00 +4°C° 0.1 mm 4 mps 762 mmHg 77%
    03:00 +4°C° 0 mm 4 mps 762 mmHg 78%
    04:00 +3°C° 0 mm 4 mps 762 mmHg 78%
    05:00 +3°C° 0 mm 4 mps 761 mmHg 78%
    06:00 +3°C° 0 mm 3 mps 762 mmHg 78%
    07:00 +3°C° 0 mm 3 mps 762 mmHg 78%
    08:00 +4°C° 0 mm 3 mps 762 mmHg 79%
    09:00 +4°C° 0 mm 3 mps 762 mmHg 78%
    10:00 +4°C° 0 mm 3 mps 762 mmHg 78%
    11:00 +5°C° 0 mm 2 mps 762 mmHg 78%
    12:00 +5°C° 0 mm 3 mps 762 mmHg 77%
    13:00 +7°C° 0 mm 3 mps 761 mmHg 75%
    14:00 +7°C° 0 mm 3 mps 761 mmHg 74%
    15:00 +7°C° 0 mm 3 mps 761 mmHg 77%
    16:00 +5°C° 0 mm 3 mps 761 mmHg 79%
    17:00 +5°C° 0 mm 3 mps 760 mmHg 82%
    18:00 +6°C° 0 mm 2 mps 761 mmHg 83%
    19:00 +6°C° 0 mm 2 mps 761 mmHg 84%
    20:00 +6°C° 0 mm 2 mps 761 mmHg 86%
    21:00 +6°C° 0 mm 2 mps 761 mmHg 86%
    22:00 +6°C° 0 mm 2 mps 761 mmHg 87%
    23:00 +6°C° 0 mm 2 mps 761 mmHg 87%

    24 November, Sunday

    Time Temperature Precipitation Wind Pressure Humidity
    00:00 +7°C° 0 mm 1 mps 761 mmHg 89%
    01:00 +7°C° 0 mm 1 mps 761 mmHg 90%
    02:00 +7°C° 0 mm 1 mps 761 mmHg 91%
    03:00 +6°C° 0 mm 1 mps 760 mmHg 92%
    04:00 +6°C° 0 mm 1 mps 760 mmHg 93%
    05:00 +6°C° 0 mm 1 mps 760 mmHg 94%
    06:00 +6°C° 0 mm 1 mps 760 mmHg 94%
    07:00 +5°C° 0 mm 0 mps 760 mmHg 94%
    08:00 +5°C° 0 mm 0 mps 760 mmHg 94%
    09:00 +7°C° 0 mm 0 mps 760 mmHg 88%
    10:00 +8°C° 0 mm 0 mps 760 mmHg 83%
    11:00 +9°C° 0 mm 0 mps 760 mmHg 78%
    12:00 +11°C° 0 mm 1 mps 760 mmHg 74%
    13:00 +12°C° 0 mm 1 mps 759 mmHg 71%
    14:00 +13°C° 0 mm 1 mps 759 mmHg 68%
    15:00 +13°C° 0 mm 2 mps 759 mmHg 71%
    16:00 +12°C° 0 mm 2 mps 759 mmHg 74%
    17:00 +12°C° 0 mm 2 mps 759 mmHg 76%
    18:00 +10°C° 0 mm 2 mps 759 mmHg 78%
    19:00 +10°C° 0 mm 2 mps 759 mmHg 79%
    20:00 +10°C° 0 mm 2 mps 759 mmHg 81%
    21:00 +10°C° 0 mm 2 mps 759 mmHg 82%
    22:00 +10°C° 0 mm 1 mps 759 mmHg 83%
    23:00 +10°C° 0 mm 1 mps 759 mmHg 84%

    25 November, Monday

    Time Temperature Precipitation Wind Pressure Humidity
    00:00 +10°C° 0 mm 1 mps 759 mmHg 85%
    01:00 +10°C° 0 mm 1 mps 759 mmHg 86%
    02:00 +9°C° 0 mm 1 mps 758 mmHg 87%
    03:00 +9°C° 0 mm 1 mps 758 mmHg 88%
    04:00 +9°C° 0 mm 1 mps 758 mmHg 90%
    05:00 +8°C° 0 mm 1 mps 758 mmHg 91%
    06:00 +8°C° 0 mm 1 mps 758 mmHg 92%
    07:00 +8°C° 0 mm 1 mps 758 mmHg 92%
    08:00 +8°C° 0 mm 1 mps 758 mmHg 93%
    09:00 +8°C° 0 mm 0 mps 758 mmHg 87%
    10:00 +9°C° 0 mm 0 mps 758 mmHg 81%
    11:00 +11°C° 0 mm 0 mps 758 mmHg 76%
    12:00 +12°C° 0 mm 1 mps 758 mmHg 73%
    13:00 +13°C° 0 mm 1 mps 757 mmHg 71%
    14:00 +14°C° 0 mm 1 mps 757 mmHg 68%
    15:00 +13°C° 0 mm 1 mps 757 mmHg 71%
    16:00 +13°C° 0 mm 2 mps 757 mmHg 75%
    17:00 +12°C° 0 mm 2 mps 757 mmHg 78%
    18:00 +12°C° 0 mm 1 mps 757 mmHg 81%
    19:00 +11°C° 0 mm 1 mps 757 mmHg 83%
    20:00 +11°C° 0 mm 1 mps 757 mmHg 85%
    21:00 +11°C° 0 mm 1 mps 757 mmHg 85%
    22:00 +11°C° 0 mm 1 mps 758 mmHg 85%
    23:00 +11°C° 0 mm 1 mps 758 mmHg 85%

    26 November, Tuesday

    Time Temperature Precipitation Wind Pressure Humidity
    00:00 +11°C° 0 mm 1 mps 757 mmHg 86%
    01:00 +11°C° 0 mm 1 mps 757 mmHg 88%
    02:00 +10°C° 0 mm 1 mps 757 mmHg 89%
    03:00 +10°C° 0 mm 1 mps 757 mmHg 91%
    04:00 +9°C° 0 mm 1 mps 757 mmHg 92%
    05:00 +9°C° 0 mm 1 mps 756 mmHg 94%
    06:00 +9°C° 0 mm 1 mps 757 mmHg 93%
    07:00 +9°C° 0 mm 1 mps 757 mmHg 93%
    08:00 +9°C° 0 mm 1 mps 757 mmHg 92%
    09:00 +10°C° 0 mm 1 mps 757 mmHg 88%
    10:00 +10°C° 0 mm 0 mps 757 mmHg 83%
    11:00 +11°C° 0 mm 0 mps 757 mmHg 78%
    12:00 +12°C° 0 mm 0 mps 757 mmHg 74%
    13:00 +12°C° 0 mm 0 mps 756 mmHg 71%
    14:00 +13°C° 0 mm 0 mps 756 mmHg 67%
    15:00 +12°C° 0 mm 0 mps 756 mmHg 71%
    16:00 +12°C° 0 mm 0 mps 756 mmHg 74%
    17:00 +11°C° 0 mm 0 mps 756 mmHg 77%
    18:00 +10°C° 0 mm 0 mps 756 mmHg 79%
    19:00 +10°C° 0 mm 0 mps 757 mmHg 81%
    20:00 +10°C° 0 mm 0 mps 757 mmHg 84%
    21:00 +9°C° 0 mm 0 mps 757 mmHg 85%
    22:00 +9°C° 0 mm 0 mps 757 mmHg 86%
    23:00 +9°C° 0 mm 0 mps 758 mmHg 88%
    Show more